Find Local Weather

World > North America > United States > Ohio

Millbury, Ohio Regional Weather

Lat: 41.56N, Lon: 83.43W
Wx Zone: OHZ006
Feedback
Expires:201812141300;;778787
ASUS41 KCLE 141212
RWRCLE
OHIO REGIONAL WEATHER ROUNDUP
NATIONAL WEATHER SERVICE WILMINGTON, OH
700 AM EST FRI DEC 14 2018

NOTE: "FAIR" INDICATES FEW OR NO CLOUDS BELOW 12,000 FEET WITH NO
SIGNIFICANT WEATHER AND/OR OBSTRUCTIONS TO VISIBILITY.


OHZ001>008-015>018-024>027-034-035-043-044-141300-
   NORTHWEST OHIO
  
CITY           SKY/WX    TMP DP  RH WIND       PRES   REMARKS
DEFIANCE       CLOUDY    36  34  92 CALM      30.16R FOG              
FINDLAY        FAIR      41  36  82 SE9       30.15R                  
TOLEDO EXPRESS MOCLDY    38  35  89 CALM      30.15R FOG              
TOLEDO EXEC    MOCLDY    38  36  92 SE3       30.16R FOG              
LIMA           FAIR      41  35  79 S10       30.15R                  
$$
 

SKY/WX - Weather  TMP - Temperature  DP - Dew Point  RH - Relative Humidity
WIND - Wind Direction/Speed PRES - Barometric Pressure